Weather History for Oxford, CT

Change the Weather History Date:

Saturday, October 20, 2012

  Actual Average Record
Temperature  
Mean Temperature 60 °F -  
Max Temperature 69 °F 55 °F 69 °F (2007)
Min Temperature 50 °F 38 °F 26 °F (2003)
Degree Days  
Heating Degree Days 5    
Growing Degree Days 10 (Base 50)    
Moisture  
Dew Point 51 °F    
Average Humidity 74    
Maximum Humidity 94    
Minimum Humidity 43    
Precipitation  
Precipitation 0.00 in - - ()
Sea Level Pressure  
Sea Level Pressure 29.74 in    
Wind  
Wind Speed 6 mph (SW)    
Max Wind Speed 12 mph    
Max Gust Speed 22 mph    
Visibility 7 miles    
Events      
Averages and records for this station are not official NWS values.
T = Trace of Precipitation, MM = Missing Value Source: NWS Daily Summary

Daily Weather History Graph

Daily Weather History Graph

Search for Another Location

Airport:

Trip Planner

Search our weather history database for the weather conditions in past years. The results will help you decide how hot, cold, wet, or windy it might be!

Date:

Astronomy

Oct. 20, 2012 Rise Set
Actual Time 7:10 AM EDT 6:03 PM EDT
Civil Twilight 6:42 AM EDT 6:31 PM EDT
Nautical Twilight 6:10 AM EDT 7:03 PM EDT
Astronomical Twilight 5:38 AM EDT 7:35 PM EDT
Moon 12:46 PM EDT (10/20) 10:44 PM EDT (10/20)
Length of Visible Light 11h 48m
Length of Day
10h 52m
Waxing Crescent, 34% of the Moon is Illuminated
Oct 20
Waxing Crescent
Oct 21
First Quarter
Oct 29
Full
Nov 6
Last Quarter
Nov 13
New

Hourly Weather History & Observations

Time (EDT) Temp. Dew Point Humidity Pressure Visibility Wind Dir Wind Speed Gust Speed Precip Events Conditions
12:15 AM 64.4 °F 60.8 °F 88% 29.75 in 7.0 mi South 10.4 mph - N/A   Overcast
12:35 AM 64.4 °F 60.8 °F 88% 29.74 in 7.0 mi South 9.2 mph 17.3 mph N/A   Overcast
12:55 AM 64.4 °F 60.8 °F 88% 29.74 in 5.0 mi South 10.4 mph - N/A   Overcast
1:15 AM 64.4 °F 60.8 °F 88% 29.73 in 5.0 mi SSW 8.1 mph - N/A   Overcast
1:35 AM 64.4 °F 60.8 °F 88% 29.73 in 7.0 mi South 6.9 mph - N/A   Overcast
1:55 AM 62.6 °F 60.8 °F 94% 29.73 in 7.0 mi SW 5.8 mph - N/A   Overcast
2:15 AM 62.6 °F 60.8 °F 94% 29.72 in 7.0 mi WSW 3.5 mph - N/A   Mostly Cloudy
2:35 AM 62.6 °F 60.8 °F 94% 29.71 in 7.0 mi SSW 4.6 mph - N/A   Partly Cloudy
2:55 AM 62.6 °F 59.0 °F 88% 29.70 in 4.0 mi SSW 3.5 mph - N/A   Mostly Cloudy
3:15 AM 60.8 °F 57.2 °F 88% 29.71 in 5.0 mi South 5.8 mph - N/A   Partly Cloudy
3:35 AM 60.8 °F 59.0 °F 94% 29.71 in 5.0 mi South 5.8 mph - N/A   Partly Cloudy
3:55 AM 62.6 °F 59.0 °F 88% 29.71 in 0.5 mi South 8.1 mph - N/A   Overcast
4:15 AM 60.8 °F 59.0 °F 94% 29.71 in 2.5 mi SSE 8.1 mph - N/A   Overcast
4:35 AM 62.6 °F 60.8 °F 94% 29.72 in 4.0 mi South 9.2 mph - N/A   Overcast
4:55 AM 62.6 °F 60.8 °F 94% 29.72 in 3.0 mi South 9.2 mph - N/A   Overcast
5:15 AM 62.6 °F 59.0 °F 88% 29.71 in 4.0 mi South 9.2 mph - N/A   Overcast
5:35 AM 60.8 °F 59.0 °F 94% 29.71 in 5.0 mi South 5.8 mph - N/A   Overcast
5:45 AM 60.8 °F 59.0 °F 94% 29.71 in 2.0 mi SSW 4.6 mph - N/A   Overcast
6:50 AM 60.8 °F 57.2 °F 88% 29.71 in 2.0 mi Calm Calm - N/A   Overcast
7:56 AM 60.8 °F 57.2 °F 88% 29.71 in 3.0 mi Calm Calm - N/A   Mostly Cloudy
8:50 AM 60.8 °F 57.2 °F 88% 29.72 in 3.0 mi Calm Calm - N/A   Mostly Cloudy
9:55 AM 60.8 °F 57.2 °F 88% 29.72 in 5.0 mi Calm Calm - N/A   Mostly Cloudy
10:11 AM 60.8 °F 55.4 °F 82% 29.72 in 7.0 mi Calm Calm - N/A   Scattered Clouds
10:45 AM 64.4 °F 57.2 °F 77% 29.73 in 7.0 mi Calm Calm - N/A   Scattered Clouds
11:45 AM 64.4 °F 55.4 °F 73% 29.72 in 10.0 mi Calm Calm - N/A   Partly Cloudy
12:50 PM 68.0 °F 53.6 °F 60% 29.69 in 10.0 mi West 4.6 mph - N/A   Scattered Clouds
1:50 PM 68.0 °F 48.2 °F 49% 29.67 in 10.0 mi West 4.6 mph - N/A   Mostly Cloudy
3:45 PM 69.8 °F 46.4 °F 43% 29.68 in 10.0 mi West 11.5 mph 18.4 mph N/A   Scattered Clouds
4:45 PM 66.2 °F 44.6 °F 46% 29.69 in 10.0 mi West 5.8 mph - N/A   Partly Cloudy
5:45 PM 64.4 °F 42.8 °F 45% 29.71 in 10.0 mi West 6.9 mph - N/A   Partly Cloudy
6:45 PM 60.8 °F 41.0 °F 48% 29.74 in 10.0 mi West 6.9 mph 21.9 mph N/A   Clear
7:50 PM 57.2 °F 39.2 °F 51% 29.77 in 10.0 mi WNW 6.9 mph - N/A   Clear
8:45 PM 55.4 °F 39.2 °F 54% 29.78 in 10.0 mi West 4.6 mph - N/A   Clear
9:15 PM 53.6 °F 37.4 °F 54% 29.80 in 10.0 mi West 5.8 mph - N/A   Clear
9:35 PM 53.6 °F 37.4 °F 54% 29.80 in 10.0 mi West 4.6 mph - N/A   Clear
9:55 PM 53.6 °F 37.4 °F 54% 29.81 in 10.0 mi West 5.8 mph - N/A   Clear
10:15 PM 53.6 °F 37.4 °F 54% 29.81 in 10.0 mi West 5.8 mph - N/A   Clear
10:35 PM 51.8 °F 37.4 °F 58% 29.81 in 10.0 mi West 4.6 mph - N/A   Clear
10:55 PM 51.8 °F 35.6 °F 54% 29.82 in 10.0 mi West 5.8 mph - N/A   Clear
11:15 PM 51.8 °F 35.6 °F 54% 29.83 in 10.0 mi West 5.8 mph - N/A   Clear
11:35 PM 51.8 °F 35.6 °F 54% 29.83 in 10.0 mi West 4.6 mph - N/A   Clear
11:55 PM 50.0 °F 35.6 °F 58% 29.83 in 10.0 mi West 3.5 mph - N/A   Clear